TimeCEST,TemperatureF,Dew PointF,Humidity,Sea Level PressureIn,VisibilityMPH,Wind Direction,Wind SpeedMPH,Gust SpeedMPH,PrecipitationIn,Events,Conditions,WindDirDegrees,DateUTC
6:55 AM,53.6,48.2,82,29.95,1.2,West,2.3,-,N/A,,Mostly Cloudy,280,2012-10-25 04:55:00
7:55 AM,53.6,48.2,82,29.95,0.6,West,2.3,-,N/A,,Overcast,270,2012-10-25 05:55:00
8:00 AM,54,49,77,29.97,1,West,2.3,,,Fog,Partial Fog,270,2012-10-25 06:00:00
8:55 AM,57.2,51.8,82,29.98,1.0,WNW,3.5,-,N/A,,Mostly Cloudy,300,2012-10-25 06:55:00
9:55 AM,59.0,53.6,82,29.98,1.6,Calm,Calm,-,N/A,,Mostly Cloudy,0,2012-10-25 07:55:00
10:15 AM,60.8,55.4,82,29.98,2.2,Calm,Calm,-,N/A,,Mostly Cloudy,0,2012-10-25 08:15:00
10:55 AM,62.6,57.2,82,29.98,3.7,Calm,Calm,-,N/A,,Mostly Cloudy,0,2012-10-25 08:55:00
11:00 AM,62,57,79,29.99,3,Calm,Calm,,,,Mist,,2012-10-25 09:00:00
11:05 AM,62.6,59.0,88,29.98,3.7,Calm,Calm,-,N/A,,Scattered Clouds,0,2012-10-25 09:05:00
11:55 AM,64.4,59.0,83,29.98,3.7,Calm,Calm,-,N/A,,Scattered Clouds,0,2012-10-25 09:55:00
12:55 PM,68.0,60.8,78,29.95,4.3,Calm,Calm,-,N/A,,Partly Cloudy,0,2012-10-25 10:55:00
1:55 PM,69.8,60.8,73,29.92,5.0,SE,2.3,-,N/A,,Partly Cloudy,130,2012-10-25 11:55:00
2:00 PM,71,60,61,29.92,5,SE,2.3,,,,Mist,130,2012-10-25 12:00:00
2:55 PM,71.6,60.8,69,29.92,5.0,ESE,2.3,-,N/A,,Partly Cloudy,110,2012-10-25 12:55:00
3:55 PM,71.6,62.6,73,29.89,5.0,East,3.5,-,N/A,,Partly Cloudy,100,2012-10-25 13:55:00
4:55 PM,68.0,62.6,83,29.89,5.0,East,8.1,-,N/A,,Partly Cloudy,80,2012-10-25 14:55:00
5:00 PM,68,63,79,29.90,5,East,8.1,,,,Mist,80,2012-10-25 15:00:00
5:55 PM,64.4,62.6,94,29.89,4.3,East,8.1,-,N/A,,Partly Cloudy,100,2012-10-25 15:55:00
6:27 PM,64.4,60.8,88,29.89,2.5,East,4.6,-,N/A,,Partly Cloudy,100,2012-10-25 16:27:00
6:55 PM,62.6,60.8,94,29.89,2.5,East,5.8,-,N/A,,Partly Cloudy,100,2012-10-25 16:55:00
7:55 PM,62.6,59.0,88,29.89,2.5,East,3.5,-,N/A,,Partly Cloudy,80,2012-10-25 17:55:00
8:00 PM,62,59,87,29.91,2,East,3.5,,,,Mist,80,2012-10-25 18:00:00